• In Uzbekistan
  • List of Countries
  • For 7 days
  • Water Temperature
  • Satellite Maps
  • Weather Map
  • Weather Widgets
  • user-avatar
    Login

    Hourly Weather Adelaide

    Today, 20 February, Monday

    Time Temperature Precipitation Wind Pressure Humidity
    00:00 +16°C° 0 mm 3 mps 758 mmHg 71%
    01:00 +16°C° 0 mm 3 mps 758 mmHg 73%
    02:00 +16°C° 0 mm 2 mps 758 mmHg 74%
    03:00 +16°C° 0 mm 2 mps 758 mmHg 75%
    04:00 +16°C° 0 mm 2 mps 758 mmHg 75%
    05:00 +16°C° 0 mm 2 mps 759 mmHg 74%
    06:00 +16°C° 0 mm 1 mps 759 mmHg 74%
    07:00 +18°C° 0 mm 1 mps 759 mmHg 67%
    08:00 +19°C° 0 mm 1 mps 759 mmHg 60%
    09:00 +19°C° 0 mm 2 mps 760 mmHg 53%
    10:00 +20°C° 0 mm 2 mps 760 mmHg 50%
    11:00 +20°C° 0 mm 2 mps 759 mmHg 48%
    12:00 +21°C° 0 mm 2 mps 759 mmHg 45%
    13:00 +21°C° 0 mm 3 mps 759 mmHg 44%
    14:00 +22°C° 0 mm 3 mps 759 mmHg 43%
    15:00 +22°C° 0 mm 3 mps 759 mmHg 43%
    16:00 +21°C° 0 mm 3 mps 759 mmHg 46%
    17:00 +20°C° 0 mm 3 mps 759 mmHg 49%
    18:00 +19°C° 0 mm 3 mps 759 mmHg 52%
    19:00 +18°C° 0 mm 3 mps 759 mmHg 56%
    20:00 +17°C° 0 mm 3 mps 760 mmHg 60%
    21:00 +14°C° 0 mm 3 mps 760 mmHg 65%
    22:00 +14°C° 0 mm 3 mps 760 mmHg 66%
    23:00 +15°C° 0 mm 2 mps 760 mmHg 68%

    Tomorrow, 21 February, Tuesday

    Time Temperature Precipitation Wind Pressure Humidity
    00:00 +14°C° 0 mm 2 mps 760 mmHg 69%
    01:00 +14°C° 0 mm 2 mps 760 mmHg 70%
    02:00 +13°C° 0 mm 3 mps 760 mmHg 71%
    03:00 +13°C° 0 mm 3 mps 760 mmHg 72%
    04:00 +13°C° 0 mm 3 mps 760 mmHg 71%
    05:00 +13°C° 0 mm 3 mps 760 mmHg 70%
    06:00 +13°C° 0 mm 3 mps 760 mmHg 69%
    07:00 +17°C° 0 mm 3 mps 760 mmHg 59%
    08:00 +20°C° 0 mm 3 mps 759 mmHg 49%
    09:00 +22°C° 0 mm 3 mps 759 mmHg 38%
    10:00 +25°C° 0 mm 3 mps 759 mmHg 35%
    11:00 +27°C° 0 mm 3 mps 758 mmHg 31%
    12:00 +30°C° 0 mm 2 mps 758 mmHg 27%
    13:00 +30°C° 0 mm 2 mps 757 mmHg 26%
    14:00 +31°C° 0 mm 2 mps 756 mmHg 25%
    15:00 +32°C° 0 mm 2 mps 755 mmHg 24%
    16:00 +30°C° 0 mm 2 mps 755 mmHg 27%
    17:00 +29°C° 0 mm 1 mps 755 mmHg 30%
    18:00 +28°C° 0 mm 1 mps 754 mmHg 33%
    19:00 +27°C° 0 mm 2 mps 754 mmHg 33%
    20:00 +26°C° 0 mm 3 mps 754 mmHg 33%
    21:00 +25°C° 0 mm 3 mps 754 mmHg 33%
    22:00 +25°C° 0 mm 4 mps 754 mmHg 31%
    23:00 +25°C° 0 mm 5 mps 754 mmHg 29%

    Day after tomorrow, 22 February, Wednesday

    Time Temperature Precipitation Wind Pressure Humidity
    00:00 +26°C° 0 mm 6 mps 753 mmHg 26%
    01:00 +24°C° 0 mm 6 mps 753 mmHg 27%
    02:00 +24°C° 0 mm 6 mps 752 mmHg 28%
    03:00 +24°C° 0 mm 6 mps 751 mmHg 29%
    04:00 +24°C° 0 mm 6 mps 752 mmHg 29%
    05:00 +26°C° 0 mm 6 mps 752 mmHg 29%
    06:00 +26°C° 0 mm 6 mps 752 mmHg 29%
    07:00 +27°C° 0 mm 6 mps 752 mmHg 30%
    08:00 +28°C° 0 mm 7 mps 753 mmHg 32%
    09:00 +30°C° 0 mm 7 mps 754 mmHg 33%
    10:00 +29°C° 0 mm 7 mps 754 mmHg 35%
    11:00 +29°C° 0 mm 7 mps 754 mmHg 37%
    12:00 +29°C° 0 mm 7 mps 754 mmHg 38%
    13:00 +28°C° 0 mm 6 mps 754 mmHg 39%
    14:00 +28°C° 0 mm 6 mps 754 mmHg 39%
    15:00 +27°C° 0 mm 5 mps 755 mmHg 39%
    16:00 +26°C° 0 mm 5 mps 755 mmHg 45%
    17:00 +25°C° 0 mm 5 mps 756 mmHg 51%
    18:00 +23°C° 0 mm 5 mps 757 mmHg 56%
    19:00 +22°C° 0 mm 5 mps 757 mmHg 60%
    20:00 +21°C° 0 mm 4 mps 758 mmHg 64%
    21:00 +19°C° 0 mm 4 mps 759 mmHg 68%
    22:00 +19°C° 0 mm 4 mps 759 mmHg 70%
    23:00 +19°C° 0 mm 4 mps 759 mmHg 72%

    23 February, Thursday

    Time Temperature Precipitation Wind Pressure Humidity
    00:00 +18°C° 0 mm 4 mps 759 mmHg 74%
    01:00 +18°C° 0 mm 3 mps 759 mmHg 75%
    02:00 +17°C° 0 mm 3 mps 759 mmHg 77%
    03:00 +17°C° 0 mm 3 mps 759 mmHg 78%
    04:00 +17°C° 0 mm 3 mps 760 mmHg 78%
    05:00 +17°C° 0 mm 3 mps 760 mmHg 77%
    06:00 +17°C° 0 mm 2 mps 761 mmHg 77%
    07:00 +18°C° 0 mm 2 mps 761 mmHg 68%
    08:00 +20°C° 0 mm 2 mps 762 mmHg 59%
    09:00 +23°C° 0 mm 2 mps 762 mmHg 50%
    10:00 +24°C° 0 mm 2 mps 762 mmHg 46%
    11:00 +25°C° 0 mm 3 mps 762 mmHg 42%
    12:00 +27°C° 0 mm 3 mps 762 mmHg 39%
    13:00 +27°C° 0 mm 3 mps 762 mmHg 39%
    14:00 +26°C° 0 mm 4 mps 762 mmHg 40%
    15:00 +26°C° 0 mm 4 mps 761 mmHg 41%
    16:00 +25°C° 0 mm 4 mps 762 mmHg 46%
    17:00 +23°C° 0 mm 4 mps 762 mmHg 50%
    18:00 +22°C° 0 mm 4 mps 762 mmHg 55%
    19:00 +20°C° 0 mm 4 mps 763 mmHg 61%
    20:00 +19°C° 0 mm 4 mps 764 mmHg 68%
    21:00 +18°C° 0 mm 4 mps 764 mmHg 74%
    22:00 +17°C° 0 mm 4 mps 764 mmHg 77%
    23:00 +17°C° 0 mm 4 mps 764 mmHg 80%

    24 February, Friday

    Time Temperature Precipitation Wind Pressure Humidity
    00:00 +16°C° 0 mm 3 mps 764 mmHg 82%
    01:00 +16°C° 0 mm 3 mps 764 mmHg 84%
    02:00 +14°C° 0 mm 3 mps 764 mmHg 85%
    03:00 +14°C° 0 mm 3 mps 764 mmHg 87%
    04:00 +14°C° 0 mm 3 mps 765 mmHg 87%
    05:00 +14°C° 0 mm 3 mps 765 mmHg 86%
    06:00 +14°C° 0 mm 3 mps 766 mmHg 86%
    07:00 +17°C° 0 mm 3 mps 766 mmHg 76%
    08:00 +19°C° 0 mm 3 mps 766 mmHg 65%
    09:00 +20°C° 0 mm 3 mps 766 mmHg 55%
    10:00 +22°C° 0 mm 3 mps 766 mmHg 50%
    11:00 +23°C° 0 mm 4 mps 766 mmHg 45%
    12:00 +26°C° 0 mm 4 mps 766 mmHg 41%
    13:00 +26°C° 0 mm 4 mps 765 mmHg 42%
    14:00 +26°C° 0 mm 5 mps 765 mmHg 42%
    15:00 +26°C° 0 mm 5 mps 764 mmHg 43%
    16:00 +23°C° 0 mm 5 mps 765 mmHg 48%
    17:00 +22°C° 0 mm 5 mps 765 mmHg 54%
    18:00 +20°C° 0 mm 6 mps 765 mmHg 59%
    19:00 +19°C° 0 mm 5 mps 766 mmHg 64%
    20:00 +17°C° 0 mm 5 mps 766 mmHg 70%
    21:00 +16°C° 0 mm 5 mps 766 mmHg 75%
    22:00 +16°C° 0 mm 5 mps 766 mmHg 76%
    23:00 +16°C° 0 mm 5 mps 766 mmHg 77%

    25 February, Saturday

    Time Temperature Precipitation Wind Pressure Humidity
    00:00 +17°C° 0 mm 4 mps 766 mmHg 79%
    01:00 +15°C° 0 mm 4 mps 765 mmHg 79%
    02:00 +15°C° 0 mm 4 mps 765 mmHg 79%
    03:00 +15°C° 0 mm 4 mps 765 mmHg 80%
    04:00 +15°C° 0 mm 4 mps 766 mmHg 79%
    05:00 +14°C° 0 mm 4 mps 766 mmHg 79%
    06:00 +14°C° 0 mm 4 mps 766 mmHg 78%
    07:00 +17°C° 0 mm 4 mps 766 mmHg 69%
    08:00 +19°C° 0 mm 4 mps 767 mmHg 60%
    09:00 +21°C° 0 mm 4 mps 767 mmHg 51%
    10:00 +22°C° 0 mm 4 mps 766 mmHg 47%
    11:00 +25°C° 0 mm 4 mps 765 mmHg 42%
    12:00 +26°C° 0 mm 4 mps 765 mmHg 37%
    13:00 +27°C° 0 mm 4 mps 764 mmHg 38%
    14:00 +27°C° 0 mm 5 mps 764 mmHg 39%
    15:00 +27°C° 0 mm 5 mps 763 mmHg 39%
    16:00 +25°C° 0 mm 5 mps 763 mmHg 45%
    17:00 +22°C° 0 mm 5 mps 763 mmHg 51%
    18:00 +21°C° 0 mm 5 mps 763 mmHg 57%
    19:00 +20°C° 0 mm 5 mps 764 mmHg 64%
    20:00 +18°C° 0 mm 4 mps 764 mmHg 70%
    21:00 +17°C° 0 mm 4 mps 764 mmHg 76%
    22:00 +17°C° 0 mm 4 mps 764 mmHg 77%
    23:00 +17°C° 0 mm 3 mps 763 mmHg 78%
    Show more